Location: NCO
(38.4404°N, 77.1340°W)
Time: 01:35:31
(UTC-04:00)

ISS - Visible Passes

Search period start: 23 September 2017 00:00
Search period end: 03 October 2017 00:00
Orbit: 401 x 407 km, 51.6° (Epoch: 23 September)

Date Brightness Start Highest point End Pass type
(mag) Time Alt. Az. Time Alt. Az. Time Alt. Az.
23 Sep -2.0 20:01:52 10° S 20:03:33 16° SE 20:03:33 16° SE visible
24 Sep -3.2 20:44:32 10° SW 20:47:02 50° SW 20:47:02 50° SW visible
25 Sep -3.3 19:52:26 10° SSW 19:55:30 40° SE 19:57:33 18° ENE visible
25 Sep -0.7 21:29:22 10° W 21:30:15 15° WNW 21:30:15 15° WNW visible
26 Sep -2.5 20:36:30 10° WSW 20:39:35 38° NNW 20:40:32 30° N visible
27 Sep -3.7 19:43:55 10° SW 19:47:10 74° NW 19:50:26 10° NE visible
27 Sep -0.7 21:22:12 10° NW 21:23:19 13° NW 21:23:19 13° NW visible
28 Sep -1.4 20:28:56 10° WNW 20:31:29 20° NNW 20:33:15 14° NNE visible
29 Sep -2.2 19:35:56 10° W 19:38:55 31° NNW 19:41:54 10° NE visible
30 Sep -1.0 20:21:49 10° NW 20:23:27 13° NNW 20:25:05 10° NNE visible
01 Oct -1.3 19:28:26 10° WNW 19:30:46 18° NNW 19:33:07 10° NNE visible
